TimeEDT,TemperatureF,Dew PointF,Humidity,Sea Level PressureIn,VisibilityMPH,Wind Direction,Wind SpeedMPH,Gust SpeedMPH,PrecipitationIn,Events,Conditions,WindDirDegrees,DateUTC
12:53 AM,55.9,46.0,69,30.13,10.0,South,4.6,-,N/A,,Clear,180,2012-03-14 04:53:00
1:53 AM,57.9,46.0,65,30.13,10.0,South,3.5,-,N/A,,Clear,190,2012-03-14 05:53:00
2:53 AM,54.0,46.0,75,30.14,10.0,Calm,Calm,-,N/A,,Clear,0,2012-03-14 06:53:00
3:53 AM,51.8,46.4,82,30.15,10.0,Calm,Calm,-,N/A,,Clear,0,2012-03-14 07:53:00
4:53 AM,50.0,46.0,86,30.14,10.0,Calm,Calm,-,N/A,,Clear,0,2012-03-14 08:53:00
5:53 AM,48.9,45.0,86,30.16,10.0,Calm,Calm,-,N/A,,Clear,0,2012-03-14 09:53:00
6:53 AM,45.0,43.0,93,30.19,7.0,Calm,Calm,-,N/A,,Clear,0,2012-03-14 10:53:00
7:53 AM,45.0,42.1,90,30.21,8.0,Calm,Calm,-,N/A,,Clear,0,2012-03-14 11:53:00
8:53 AM,48.9,46.0,90,30.23,9.0,Calm,Calm,-,N/A,,Clear,0,2012-03-14 12:53:00
9:53 AM,55.0,46.0,72,30.25,10.0,Calm,Calm,-,N/A,,Clear,0,2012-03-14 13:53:00
10:53 AM,61.0,46.9,60,30.25,10.0,South,4.6,-,N/A,,Clear,180,2012-03-14 14:53:00
11:53 AM,66.9,48.0,51,30.24,10.0,SW,4.6,-,N/A,,Clear,220,2012-03-14 15:53:00
12:53 PM,69.1,46.9,45,30.23,10.0,SW,5.8,-,N/A,,Clear,230,2012-03-14 16:53:00
1:53 PM,72.0,46.9,41,30.21,10.0,Calm,Calm,-,N/A,,Clear,0,2012-03-14 17:53:00
2:53 PM,73.9,46.9,38,30.18,10.0,Calm,Calm,-,N/A,,Clear,0,2012-03-14 18:53:00
3:53 PM,75.0,43.0,32,30.17,10.0,East,3.5,-,N/A,,Clear,90,2012-03-14 19:53:00
4:53 PM,75.9,41.0,29,30.16,10.0,SSW,5.8,-,N/A,,Clear,200,2012-03-14 20:53:00
5:53 PM,75.0,39.9,28,30.15,10.0,SSW,4.6,-,N/A,,Clear,210,2012-03-14 21:53:00
6:53 PM,73.9,39.0,28,30.16,10.0,SSW,3.5,-,N/A,,Clear,210,2012-03-14 22:53:00
7:53 PM,69.1,41.0,36,30.17,10.0,Calm,Calm,-,N/A,,Clear,0,2012-03-14 23:53:00
8:53 PM,66.9,39.9,37,30.18,10.0,South,3.5,-,N/A,,Clear,170,2012-03-15 00:53:00
9:53 PM,63.0,41.0,45,30.19,10.0,South,3.5,-,N/A,,Clear,170,2012-03-15 01:53:00
10:53 PM,57.9,42.1,56,30.19,10.0,South,3.5,-,N/A,,Clear,180,2012-03-15 02:53:00
11:53 PM,55.9,43.0,62,30.19,10.0,Calm,Calm,-,N/A,,Clear,0,2012-03-15 03:53:00